G8LMY Weather Reports


time (UTC)temp
C
wind
direction
speed
KPH
gust
KPH
rain 1hr
cm
rain 24hr
cm
rain mn
cm
humidity
%
barometer
mb
20260502115355 20 235 0.0 4.8 0.00 0.00 0.00 54 1015.0
20260502113855 18 235 0.0 4.8 0.00 0.00 0.00 56 1015.4
20260502105355 17 233 0.0 3.2 0.00 0.00 0.00 64 1015.9
20260502103855 16 233 0.0 3.2 0.00 0.00 0.00 66 1016.3
20260502100854 14 234 0.0 3.2 0.00 0.00 0.00 73 1016.5
20260502070917 10 236 0.0 3.2 0.00 0.00 0.00 90 1017.8
20260502063855 9 236 0.0 3.2 0.00 0.00 0.00 91 1017.6
20260502062355 9 236 0.0 3.2 0.00 0.00 0.00 91 1017.8
20260502060853 9 236 0.0 3.2 0.00 0.00 0.00 91 1017.7
20260502055355 9 236 0.0 3.2 0.00 0.00 0.00 91 1017.7
20260502053855 9 236 0.0 3.2 0.00 0.00 0.00 91 1017.6
20260502052353 9 236 0.0 3.2 0.00 0.00 0.00 91 1017.7
20260502042754 10 236 0.0 3.2 0.00 0.00 0.00 91 1017.5
20260502042354 10 236 0.0 3.2 0.00 0.00 0.00 91 1017.5
20260502040853 10 236 0.0 3.2 0.00 0.00 0.00 91 1017.7
20260502033853 10 236 0.0 3.2 0.00 0.00 0.00 91 1017.8
20260502032353 9 236 0.0 3.2 0.00 0.00 0.00 91 1017.9
20260502030854 10 236 0.0 3.2 0.00 0.00 0.00 90 1018.0
20260502023854 10 236 0.0 0.0 0.00 0.00 0.00 89 1018.0
20260502020854 10 236 0.0 0.0 0.00 0.00 0.00 89 1018.0
20260502013854 10 236 0.0 0.0 0.00 0.00 0.00 89 1018.1
20260502010854 10 236 0.0 0.0 0.00 0.00 0.00 87 1018.3
20260502005354 10 236 0.0 0.0 0.00 0.00 0.00 87 1018.4
20260502003854 10 236 0.0 0.0 0.00 0.00 0.00 87 1018.6
20260502002355 11 236 0.0 0.0 0.00 0.00 0.00 86 1018.8
20260501235355 11 236 0.0 0.0 0.00 0.00 0.00 86 1018.8
20260501233855 11 236 0.0 0.0 0.00 0.00 0.00 85 1018.9
20260501232355 11 236 0.0 0.0 0.00 0.00 0.00 84 1019.0
20260501230855 11 236 0.0 0.0 0.00 0.00 0.00 83 1018.9
20260501225354 11 236 0.0 16.1 0.00 0.00 0.00 81 1019.1
20260501220855 12 236 0.0 16.1 0.00 0.00 0.00 77 1018.8
20260501215354 12 236 0.0 16.1 0.00 0.00 0.00 74 1018.8
20260501213854 13 236 0.0 16.1 0.00 0.00 0.00 73 1018.8
20260501212354 13 236 0.0 16.1 0.00 0.00 0.00 71 1018.9
20260501210855 14 236 0.0 16.1 0.00 0.00 0.00 71 1018.8
20260501205354 15 236 0.0 16.1 0.00 0.00 0.00 72 1018.7
20260501203855 15 236 0.0 16.1 0.00 0.00 0.00 72 1018.7
20260501202508 15 236 0.0 16.1 0.00 0.00 0.00 72 1018.6
20260501202355 15 236 0.0 16.1 0.00 0.00 0.00 72 1018.6
20260501200855 16 236 0.0 16.1 0.00 0.00 0.00 71 1018.6
20260501193855 16 236 0.0 16.1 0.00 0.00 0.00 69 1018.3
20260501192656 17 236 0.0 16.1 0.00 0.00 0.00 68 1018.2
20260501192355 17 236 0.0 16.1 0.00 0.00 0.00 68 1018.2
20260501190855 17 236 0.0 16.1 0.00 0.00 0.00 66 1018.1
20260501185441 17 236 0.0 16.1 0.00 0.00 0.00 65 1018.1
20260501185355 17 236 0.0 16.1 0.00 0.00 0.00 65 1018.1
20260501183855 18 236 0.0 16.1 0.00 0.00 0.00 64 1018.1
20260501180854 18 238 0.0 16.1 0.00 0.00 0.00 63 1018.0
20260501175355 19 219 1.6 16.1 0.00 0.00 0.00 62 1018.0
20260501172355 20 233 0.0 14.5 0.00 0.00 0.00 60 1018.0
20260501170854 21 235 0.0 14.5 0.00 0.00 0.00 59 1018.0
20260501163854 21 229 4.8 12.9 0.00 0.00 0.00 59 1018.0
20260501160855 21 235 1.6 12.9 0.00 0.00 0.00 61 1018.0
20260501153855 22 233 0.0 12.9 0.00 0.00 0.00 56 1018.0
20260501152354 22 235 8.0 12.9 0.00 0.00 0.00 59 1018.0
20260501150855 22 232 0.0 9.7 0.00 0.00 0.00 56 1018.1
20260501145355 23 232 0.0 9.7 0.00 0.00 0.00 54 1018.1